Погода в Чёрном Яре

Россия / Республика Коми     62°13′10″N   50°17′30″E
темп.,
°C
ветер,
м/с
пор.,
м/с
влажн.,
%
обл.,
%
осадки,
мм/ч
давл.,
гПа
погр.,
м
16 мая, вс
вс1600:00+14в3976100 0.0 1011205
03:00+13юв2487100 0.0 1011113
06:00+16ююв368241 0.0 1009354
09:00+22юз59530 0.2 10081581
12:00+25юз6113575 0.0 10082939
15:00+23зюз61039100 0.0 10072464
18:00+22юз512495 0.1 10061950
21:00+16юз3127729 1.1 1007439
17 мая, пн
пн1700:00+14юз311855 0.1 1007479
03:00+13юз311926 0.1 1008529
06:00+15зюз5980100 0.0 1009955
09:00+16зюз4874100 0.1 10111057
12:00+14з4881100 0.2 1013874
15:00+15сз4673100 0.3 1015972
18:00+13ссз3674100 0.1 10171069
21:00+10с3683100 0.1 1020330
18 мая, вт
вт1800:00+7ссв25940 0.0 1021145
03:00+6св22960 0.0 102336
06:00+11всв127116 0.0 1024361
09:00+16всв115132 0.0 1024883
12:00+20вюв114097 0.0 10231274
15:00+21юв223699 0.0 10221443
18:00+20юв234271 0.0 1022298
21:00+14юв2560100 0.0 102284
19 мая, ср
ср1900:00+12юв276770 0.0 1022118
03:00+11ююв267657 0.0 1022121
06:00+16ю375929 0.0 1021307
09:00+22ю464233 0.0 1020845
12:00+26ююз45345 0.0 10181499
15:00+28ююз46325 0.0 10172317
18:00+26ююз484018 0.0 1016724
21:00+19ю310680 0.0 1016197
20 мая, чт
чт2000:00+17ююз312790 0.0 1017256
03:00+15ююз29885 0.0 1017198
06:00+20ююз36610 0.0 1017312
09:00+25ююз454118 0.0 1016966
12:00+28ююз452951 0.0 10151882
15:00+28ююз46235 0.0 10142124
18:00+26ююз37305 0.0 1013463
21:00+19ю39545 0.0 1013154